Regional Weather Roundup
Issued by NWS

Home | Current Version | Previous Version | Text Only | Print | Product List | Glossary Off
Versions: 1 2 3 4 5 6 7 8 9 10 11 12 13 14 15 16 17 18 19 20 21 22 23 24 25 26 27 28 29 30 31 32 33 34 35 36 37 38 39 40 41 42 43 44 45 46 47 48 49 50

031
ASUS43 KFSD 280502
RWRSD

WEATHER ROUNDUP FOR SOUTH DAKOTA
NATIONAL WEATHER SERVICE SIOUX FALLS SD
1100 PM CST MON FEB 27 2017

NOTE: "FAIR" INDICATES FEW OR NO CLOUDS BELOW 12,000 FEET WITH NO
SIGNIFICANT WEATHER AND/OR OBSTRUCTIONS TO VISIBILITY.


SDZ001>005-009-010-012>017-280600-
NORTHWEST AND NORTH CENTRAL SOUTH DAKOTA

CITY           SKY/WX    TMP DP  RH WIND       PRES   REMARKS
BUFFALO          N/A     21  17  84 E16       29.66R WCI   7
FAITH            N/A     21  21 100 NE21      29.71F WCI   5
MOBRIDGE       CLOUDY    27  21  78 NE13      29.75F WCI  16
$$

SDZ012>016-024>037-041>051-057-063-072>074-280600-
SOUTHWEST AND SOUTH CENTRAL SOUTH DAKOTA

CITY           SKY/WX    TMP DP  RH WIND       PRES   REMARKS
RAPID CTY ARPT CLOUDY    26  19  74 N9        29.68S WCI  17
PIERRE         LGT RAIN  34  31  88 NE6       29.72R WCI  29
CUSTER         CLOUDY    20  13  74 NW3       29.60S
ELLSWORTH AFB  CLOUDY    28  20  71 NE10      29.67  WCI  18
PHILIP         CLOUDY    32  32 100 NE7       29.71R WCI  26
PINE RIDGE     CLOUDY    32  32 100 SW5       29.69R FOG     WCI  27
SPEARFISH      FAIR      25  19  80 E10       29.64S WCI  15
WINNER         FAIR      34  29  82 CALM      29.68S
$$

SDZ004>011-016>023-039-040-280600-
NORTHEAST SOUTH DAKOTA

CITY           SKY/WX    TMP DP  RH WIND       PRES   REMARKS
ABERDEEN       LGT SNOW  29  25  85 NE15      29.78F FOG     WCI  18
WATERTOWN      CLOUDY    33  27  78 SE3       29.73F
BROOKINGS      CLOUDY    36  30  79 NE3       29.72F
SISSETON         N/A     30  28  92 N13       29.79F WCI  20
$$

SDZ017-020-022-023-036>040-048>070-280600-
SOUTHEAST SOUTH DAKOTA

CITY           SKY/WX    TMP DP  RH WIND       PRES   REMARKS
SIOUX FALLS    PTCLDY    36  31  82 E8        29.71F
HURON          CLOUDY    30  27  88 CALM      29.72F
CHAMBERLAIN    CLOUDY    35  28  76 NE7       29.69S WCI  29
MITCHELL       CLOUDY    28  27  96 NW5       29.71F WCI  23
YANKTON        CLEAR     34  28  80 E8        29.69R WCI  27
$$

ABBREVIATIONS USED IN REMARKS
   TC - TEMPERATURE IN CELSIUS
  WCI - WIND CHILL INDEX
   HX - HEAT INDEX
  VSB - VISIBILITY





USA.gov is the U.S. government's official web portal to all federal, state and local government web resources and services.